Location: *
(33.8649°S, 62.1526°E)
Time: 23:13:29
(UTC+00:00)

Centaur D AC-28 - Visible Passes

Search period start: 05 May 2021 00:00
Search period end: 15 May 2021 00:00
Orbit: 697 x 36357 km, 27.9° (Epoch: 05 May)

Date Brightness Start Highest point End Pass type
(mag) Time Alt. Az. Time Alt. Az. Time Alt. Az.
05 May 8.5 02:04:41 10° ENE 04:44:57 26° E 05:51:27 10° E visible
05 May 5.5 17:23:47 10° WNW 17:24:03 10° WNW 17:24:03 10° WNW visible
06 May 4.3 14:17:03 10° W 15:03:07 51° NNW 15:08:01 22° NE visible
08 May 6.3 00:55:49 10° NNE 09:54:15 74° NNE 10:25:41 10° E visible
09 May 7.3 01:03:28 10° ENE 06:48:29 54° NE 07:59:05 10° E visible
10 May 8.6 01:48:36 10° ENE 04:13:56 24° E 05:18:53 10° E visible
10 May 5.3 16:51:16 10° WNW 16:55:01 12° NW 16:55:57 12° NW visible
11 May 4.7 13:27:48 10° W 14:33:19 53° NNW 14:39:56 12° NE visible
13 May 6.5 00:30:19 10° NNE 09:20:11 73° NNE 09:55:58 10° E visible
14 May 7.5 00:45:27 10° ENE 06:14:49 52° ENE 07:28:44 10° E visible
